This demonstration page uses our WeatherBlox Daily Observations layout. Learn more.

Left ArrowRight Arrow

39.92423, -83.80882

Hourly Observations for July 9, 2021

Temp ( °F °C ) Dew Point ( °F °C ) Humidity (%) Winds ( mph kmh ) Pressure ( in mb ) Visibility ( mi km ) Precip ( " mm )
12:44 am 00:44 Cloudy 73 23 N/A N/A NW 7 11 29.89 1012 10 16 N/A
12:56 am 00:56 Cloudy 73 23 N/A N/A NW 13 20 29.91 1013 10 16 N/A
1:03 am 01:03 Cloudy 72 22 N/A N/A NW 10 17 29.89 1012 10 16 N/A
1:13 am 01:13 Cloudy 72 22 N/A N/A NW 7 11 29.89 1012 10 16 N/A
1:49 am 01:49 Cloudy 72 22 72 22 100 100 NNW 12 19 29.89 1012 10 16 N/A
1:56 am 01:56 Cloudy 70 21.1 70 21.1 100 100 NNW 12 19 29.91 1013 10 16 N/A
2:56 am 02:56 Cloudy 68 20 N/A N/A NNW 8 13 29.91 1013 10 16 N/A
3:56 am 03:56 Cloudy 68 20 N/A N/A WNW 10 17 29.92 1013 10 16 N/A
4:56 am 04:56 Cloudy 66 19 N/A N/A NW 12 19 29.93 1014 10 16 N/A
5:35 am 05:35 Cloudy 64 18 64 18 100 100 WNW 10 17 29.94 1014 10 16 N/A
5:56 am 05:56 Cloudy 65 18.3 65 18.3 100 100 NW 9 15 29.94 1014 10 16 N/A
6:56 am 06:56 Cloudy 64 17.8 64 17.8 100 100 W 10 17 29.96 1015 10 16 N/A
7:56 am 07:56 Cloudy 63 17.2 63 17.2 100 100 WNW 7 11 29.98 1015 10 16 N/A
8:37 am 08:37 Cloudy 64 18 63 17 94 94 WNW 9 15 30.00 1016 10 16 N/A
8:56 am 08:56 Cloudy 64 17.8 64 17.8 100 100 WNW 9 15 30.01 1016 10 16 N/A
9:09 am 09:09 Cloudy 63 17 63 17 100 100 NNW 13 20 30.01 1016 10 16 N/A
9:53 am 09:53 Cloudy 64 18 61 16 88 88 NW 8 13 30.02 1017 10 16 N/A
9:56 am 09:56 Cloudy 64 17.8 61 16.1 90 90 NW 9 15 30.03 1017 10 16 N/A
10:56 am 10:56 Mostly Cloudy 66 18.9 62 16.7 87 87 W 8 13 30.03 1017 10 16 N/A
11:56 am 11:56 Cloudy 68 20 61 16.1 78 78 NW 8 13 30.04 1017 10 16 N/A
12:56 pm 12:56 Cloudy 69 20.6 63 17.2 81 81 W 8 13 30.05 1018 10 16 N/A
1:44 pm 13:44 Cloudy 72 22 63 17 73 73 NW 7 11 30.03 1017 10 16 N/A
1:56 pm 13:56 Cloudy 70 21.1 63 17.2 79 79 WNW 9 15 30.06 1018 10 16 N/A
2:08 pm 14:08 Cloudy 72 22 63 17 73 73 WNW 12 19 30.03 1017 10 16 N/A
2:17 pm 14:17 Cloudy 70 21 64 18 83 83 W 8 13 30.04 1017 10 16 N/A
2:33 pm 14:33 Cloudy 72 22 63 17 73 73 W 8 13 30.03 1017 10 16 N/A
2:56 pm 14:56 Cloudy 72 22.2 65 18.3 79 79 WNW 9 15 30.05 1018 10 16 N/A
3:56 pm 15:56 Mostly Cloudy 70 21.1 64 17.8 82 82 W 9 15 30.04 1017 10 16 N/A
4:46 pm 16:46 Mostly Cloudy 72 22 64 18 78 78 NW 12 19 30.01 1016 10 16 N/A
4:56 pm 16:56 Cloudy 72 22.2 64 17.8 76 76 NW 7 11 30.04 1017 10 16 N/A
5:22 pm 17:22 Mostly Cloudy 73 23 64 18 74 74 W 8 13 30.01 1016 10 16 N/A
5:56 pm 17:56 Partly Cloudy 72 22.2 63 17.2 73 73 NW 5 7 30.02 1017 10 16 N/A
6:56 pm 18:56 Mostly Cloudy 71 21.7 63 17.2 76 76 W 7 11 30.04 1017 10 16 N/A
7:56 pm 19:56 Sunny 71 21.7 63 17.2 76 76 WNW 7 11 30.06 1018 10 16 N/A
8:56 pm 20:56 Sunny 69 20.6 63 17.2 81 81 WNW 7 11 30.06 1018 10 16 N/A
9:56 pm 21:56 Clear 64 17.8 64 17.8 100 100 WNW 5 7 30.08 1019 10 16 N/A
10:56 pm 22:56 Clear 63 17 N/A N/A W 6 9 30.11 1020 10 16 N/A
11:56 pm 23:56 Clear 63 17 N/A N/A N N/A 30.10 1019 10 16 N/A

Powered by AerisWeather